Location: Street
(51.1247°N, 2.7429°W)
Time: 10:30:56
(UTC+00:00)

ELISA E24 - Visible Passes

Search period start: 01 December 2023 00:00
Search period end: 11 December 2023 00:00
Orbit: 649 x 652 km, 97.8° (Epoch: 27 March)

Date Brightness Start Highest point End Pass type
(mag) Time Alt. Az. Time Alt. Az. Time Alt. Az.
01 Dec ? 06:39:47 10° NE 06:43:35 26° E 06:47:21 10° SSE visible
01 Dec ? 17:42:56 10° SE 17:47:09 41° ENE 17:51:23 10° N visible
01 Dec ? 19:20:09 10° SSW 19:23:58 27° W 19:27:49 10° NW visible
02 Dec ? 07:05:23 10° NNE 07:09:42 44° E 07:13:59 10° S visible
02 Dec ? 18:08:31 10° SSE 18:12:59 71° ENE 18:17:29 10° N visible
02 Dec ? 19:47:22 10° SW 19:50:10 16° W 19:53:00 10° NW visible
03 Dec ? 05:57:18 10° ENE 05:58:14 11° E 05:59:10 10° E visible
03 Dec ? 16:59:35 10° ESE 17:02:42 19° ENE 17:05:49 10° NNE visible
03 Dec ? 18:34:28 10° S 18:38:56 68° WSW 18:43:26 10° NNW visible
04 Dec ? 06:21:23 10° NE 06:24:31 18° E 06:27:37 10° SE visible
04 Dec ? 17:24:30 10° ESE 17:28:23 29° ENE 17:32:16 10° N visible
04 Dec ? 19:00:45 10° SSW 19:04:58 39° W 19:09:12 10° NNW visible
05 Dec ? 06:46:42 10° NNE 06:50:41 30° E 06:54:39 10° SSE visible
05 Dec ? 17:49:51 10° SE 17:54:09 48° ENE 17:58:29 10° N visible
05 Dec ? 19:27:29 10° SW 19:31:05 23° W 19:34:42 10° NW visible
06 Dec ? 07:12:21 10° NNE 07:16:46 52° E 07:21:08 10° S visible
06 Dec ? 16:41:48 10° E 16:44:01 14° NE 16:46:15 10° NNE visible
06 Dec ? 18:15:32 10° SSE 18:20:00 82° ENE 18:24:32 10° NNW visible
06 Dec ? 19:54:58 10° WSW 19:57:18 14° W 19:59:39 10° NW visible
07 Dec ? 06:03:27 10° ENE 06:05:22 12° E 06:07:16 10° ESE visible
07 Dec ? 17:06:16 10° ESE 17:09:38 21° ENE 17:13:00 10° NNE visible
07 Dec ? 18:41:32 10° S 18:45:57 58° W 18:50:24 10° NNW visible
08 Dec ? 06:28:10 10° NE 06:31:36 21° E 06:35:01 10° SE visible
08 Dec ? 17:31:18 10° SE 17:35:20 33° ENE 17:39:22 10° N visible
08 Dec ? 19:07:56 10° SSW 19:12:00 34° W 19:16:07 10° NNW visible
09 Dec ? 06:53:36 10° NNE 06:57:43 35° E 07:01:50 10° SSE visible
09 Dec ? 17:56:44 10° SSE 18:01:07 56° ENE 18:05:31 10° N visible
09 Dec ? 19:34:49 10° SW 19:38:08 20° W 19:41:29 10° NW visible
10 Dec ? 07:19:18 10° NNE 07:23:46 61° E 07:28:11 10° S visible
10 Dec ? 16:48:16 10° E 16:50:54 16° ENE 16:53:31 10° NNE visible
10 Dec ? 18:22:29 10° SSE 18:26:59 86° WSW 18:31:30 10° NNW visible
10 Dec ? 20:02:41 10° WSW 20:04:22 12° W 20:06:04 10° WNW visible
